Chadron, NE

5:03 PM MST on February 12, 2016 (GMT -0700)
Chadron Municipal

Weather History for KCDR - August, 2013

Change the Weather History Date:

Friday, August 30, 2013

  Actual Average Record
Temperature  
Mean Temperature 81 °F 68 °F  
Max Temperature 99 °F 86 °F 106 °F (1990)
Min Temperature 63 °F 51 °F 37 °F (1935)
Degree Days  
Heating Degree Days 0 2  
Month to date heating degree days 0 16  
Since 1 June heating degree days 58 107  
Since 1 July heating degree days 0 26  
Cooling Degree Days 16 5  
Month to date cooling degree days 301 238  
Year to date cooling degree days 759 642  
Since 1 June cooling degree days 731 622  
Growing Degree Days 30 (Base 50)    
Moisture  
Dew Point 59 °F    
Average Humidity 52    
Maximum Humidity 73    
Minimum Humidity 30    
Precipitation  
Precipitation T in 0.06 in 1.16 in (1996)
Month to date precipitation 1.39 1.53  
Year to date precipitation 12.31 13.82  
Sea Level Pressure  
Sea Level Pressure 29.95 in    
Wind  
Wind Speed 11 mph (SSE)    
Max Wind Speed 31 mph    
Max Gust Speed 38 mph    
Visibility 10 miles    
Events Thunderstorm    
T = Trace of Precipitation, MM = Missing Value Source: NWS Daily Summary

Daily Weather History Graph

Daily Weather History Graph

Search for Another Location

Airport or City:

Trip Planner

Search our weather history database for the weather conditions in past years. The results will help you decide how hot, cold, wet, or windy it might be!

Date:

Astronomy

Aug. 30, 2013 Rise Set
Actual Time 6:15 AM MDT 7:29 PM MDT
Civil Twilight 5:45 AM MDT 7:58 PM MDT
Nautical Twilight 5:10 AM MDT 8:33 PM MDT
Astronomical Twilight 4:33 AM MDT 9:10 PM MDT
Moon 12:51 AM MDT (8/30) 3:51 PM MDT (8/30)
Length of Visible Light 14h 13m
Length of Day
13h 14m
Waning Crescent, 28% of the Moon is Illuminated
Aug 30
Waning Crescent
Sep 5
New
Sep 12
First Quarter
Sep 19
Full
Sep 26
Last Quarter

Hourly Weather History & Observations

Time (MDT) Temp. Heat Index Dew Point Humidity Pressure Visibility Wind Dir Wind Speed Gust Speed Precip Events Conditions
12:53 AM 66.0 °F - 55.9 °F 70% 29.99 in 10.0 mi West 3.5 mph - N/A   Clear
1:53 AM 64.0 °F - 55.9 °F 75% 30.00 in 10.0 mi WSW 4.6 mph - N/A   Clear
2:53 AM 64.9 °F - 55.9 °F 73% 30.01 in 10.0 mi Calm Calm - N/A   Clear
3:53 AM 64.9 °F - 55.0 °F 70% 30.02 in 10.0 mi SSW 9.2 mph - N/A   Clear
4:53 AM 69.1 °F - 55.9 °F 63% 29.99 in 10.0 mi SW 6.9 mph - N/A   Clear
5:53 AM 70.0 °F - 57.0 °F 63% 29.99 in 10.0 mi NNW 8.1 mph - 0.00 in   Clear
6:53 AM 66.9 °F - 57.0 °F 70% 30.02 in 10.0 mi Calm Calm - N/A   Clear
7:53 AM 70.0 °F - 57.0 °F 63% 30.05 in 10.0 mi East 4.6 mph - N/A   Clear
8:53 AM 75.9 °F - 60.1 °F 58% 30.04 in 10.0 mi SSE 4.6 mph - N/A   Clear
9:53 AM 81.0 °F 83.0 °F 66.0 °F 60% 30.02 in 10.0 mi Variable 3.5 mph - N/A   Clear
10:53 AM 86.0 °F 88.8 °F 66.9 °F 53% 30.00 in 10.0 mi South 3.5 mph - N/A   Clear
11:53 AM 91.0 °F 92.6 °F 64.0 °F 41% 29.98 in 10.0 mi SSE 13.8 mph 17.3 mph N/A   Clear
12:53 PM 93.0 °F 93.8 °F 62.1 °F 36% 29.96 in 10.0 mi South 11.5 mph - N/A   Clear
1:53 PM 95.0 °F 95.6 °F 62.1 °F 33% 29.93 in 10.0 mi SSE 9.2 mph - N/A   Clear
2:53 PM 97.0 °F 96.9 °F 60.1 °F 29% 29.88 in 10.0 mi ESE 15.0 mph 23.0 mph N/A   Clear
3:49 PM 96.8 °F 96.2 °F 59.0 °F 28% 29.94 in 10.0 mi SE 15.0 mph 20.7 mph N/A Thunderstorm Clear
3:53 PM 96.1 °F 95.2 °F 57.9 °F 28% 29.84 in 10.0 mi SE 10.4 mph 20.7 mph N/A Thunderstorm Partly Cloudy
4:01 PM 96.8 °F 95.8 °F 57.2 °F 27% 29.93 in 10.0 mi SSE 11.5 mph - N/A Thunderstorm Scattered Clouds
4:53 PM 84.0 °F 84.0 °F 60.1 °F 44% 29.85 in 8.0 mi ENE 29.9 mph 38.0 mph 0.00 in Thunderstorm Thunderstorm
5:00 PM 82.4 °F 82.5 °F 59.0 °F 45% 29.92 in 7.0 mi ENE 21.9 mph 38.0 mph N/A Thunderstorm Mostly Cloudy
5:42 PM 84.2 °F 83.5 °F 57.2 °F 40% 29.93 in 10.0 mi ESE 21.9 mph 27.6 mph N/A   Clear
5:53 PM 86.0 °F 85.0 °F 57.9 °F 38% 29.86 in 10.0 mi SE 21.9 mph 27.6 mph N/A   Clear
6:53 PM 81.0 °F 81.3 °F 59.0 °F 47% 29.93 in 10.0 mi ESE 15.0 mph - N/A   Partly Cloudy
7:53 PM 75.9 °F - 61.0 °F 60% 29.94 in 10.0 mi SE 17.3 mph 25.3 mph N/A   Clear
8:53 PM 73.0 °F - 62.1 °F 68% 29.93 in 10.0 mi SE 12.7 mph - N/A   Clear
9:53 PM 73.0 °F - 61.0 °F 66% 29.91 in 10.0 mi SE 12.7 mph 21.9 mph N/A   Clear
10:53 PM 72.0 °F - 62.1 °F 71% 29.91 in 10.0 mi SSE 15.0 mph - N/A   Clear
11:53 PM 73.0 °F - 59.0 °F 61% 29.89 in 10.0 mi SSE 21.9 mph 32.2 mph N/A   Clear